Time,TemperatureF,DewpointF,PressureIn,WindDirection,WindDirectionDegrees,WindSpeedMPH,WindSpeedGustMPH,Humidity,HourlyPrecipIn,Conditions,Clouds,dailyrainin,SoftwareType,DateUTC
2013-11-24 00:08:00,39.6,18.0,30.22,WNW,295,11.0,20.0,42,0.00,,,0.00,weatherlink.com 1.10,2013-11-24 05:08:00,
2013-11-24 00:23:00,39.0,18.0,30.23,WSW,247,7.0,17.0,43,0.00,,,0.00,weatherlink.com 1.10,2013-11-24 05:23:00,
2013-11-24 00:38:00,38.4,18.0,30.25,NW,307,3.0,12.0,43,0.00,,,0.00,weatherlink.com 1.10,2013-11-24 05:38:00,
2013-11-24 00:53:00,37.6,17.0,30.25,WSW,255,2.0,22.0,44,0.00,,,0.00,weatherlink.com 1.10,2013-11-24 05:53:00,
2013-11-24 01:09:00,37.0,17.0,30.25,WNW,295,7.0,10.0,44,0.00,,,0.00,weatherlink.com 1.10,2013-11-24 06:09:00,
2013-11-24 01:24:00,36.5,17.0,30.25,WNW,303,11.0,17.0,45,0.00,,,0.00,weatherlink.com 1.10,2013-11-24 06:24:00,
2013-11-24 01:39:00,36.1,16.0,30.25,WNW,291,5.0,15.0,45,0.00,,,0.00,weatherlink.com 1.10,2013-11-24 06:39:00,
2013-11-24 01:54:00,35.7,16.0,30.25,West,271,14.0,24.0,45,0.00,,,0.00,weatherlink.com 1.10,2013-11-24 06:54:00,
2013-11-24 02:09:00,35.0,16.0,30.27,WNW,285,6.0,20.0,46,0.00,,,0.00,weatherlink.com 1.10,2013-11-24 07:09:00,
2013-11-24 02:24:00,34.4,14.0,30.29,NW,321,7.0,12.0,44,0.00,,,0.00,weatherlink.com 1.10,2013-11-24 07:24:00,
2013-11-24 02:39:00,33.8,14.0,30.29,NW,323,7.0,11.0,44,0.00,,,0.00,weatherlink.com 1.10,2013-11-24 07:39:00,
2013-11-24 02:54:00,33.6,13.0,30.30,West,277,5.0,11.0,43,0.00,,,0.00,weatherlink.com 1.10,2013-11-24 07:54:00,
2013-11-24 03:09:00,33.4,13.0,30.30,NNW,329,3.0,9.0,43,0.00,,,0.00,weatherlink.com 1.10,2013-11-24 08:09:00,
2013-11-24 03:24:00,33.1,14.0,30.30,West,269,5.0,11.0,45,0.00,,,0.00,weatherlink.com 1.10,2013-11-24 08:24:00,
2013-11-24 03:39:00,32.8,14.0,30.32,WNW,286,6.0,12.0,46,0.00,,,0.00,weatherlink.com 1.10,2013-11-24 08:39:00,
2013-11-24 03:54:00,32.6,14.0,30.32,West,273,4.0,16.0,46,0.00,,,0.00,weatherlink.com 1.10,2013-11-24 08:54:00,
2013-11-24 04:09:00,32.1,13.0,30.33,West,269,8.0,14.0,46,0.00,,,0.00,weatherlink.com 1.10,2013-11-24 09:09:00,
2013-11-24 04:24:00,31.7,13.0,30.33,West,274,7.0,11.0,47,0.00,,,0.00,weatherlink.com 1.10,2013-11-24 09:24:00,
2013-11-24 04:39:00,31.1,13.0,30.34,West,263,4.0,10.0,48,0.00,,,0.00,weatherlink.com 1.10,2013-11-24 09:39:00,
2013-11-24 04:54:00,30.8,14.0,30.35,West,270,5.0,12.0,49,0.00,,,0.00,weatherlink.com 1.10,2013-11-24 09:54:00,
2013-11-24 05:09:00,30.5,13.0,30.36,NW,304,6.0,12.0,49,0.00,,,0.00,weatherlink.com 1.10,2013-11-24 10:09:00,
2013-11-24 05:24:00,30.1,12.0,30.36,West,279,6.0,15.0,47,0.00,,,0.00,weatherlink.com 1.10,2013-11-24 10:24:00,
2013-11-24 05:39:00,29.8,11.0,30.37,NW,311,12.0,15.0,46,0.00,,,0.00,weatherlink.com 1.10,2013-11-24 10:39:00,
2013-11-24 05:54:00,29.4,10.0,30.38,NW,314,5.0,17.0,44,0.00,,,0.00,weatherlink.com 1.10,2013-11-24 10:54:00,
2013-11-24 06:10:00,28.9,9.0,30.38,WNW,283,5.0,14.0,44,0.00,,,0.00,weatherlink.com 1.10,2013-11-24 11:10:00,
2013-11-24 06:25:00,28.5,9.0,30.39,West,274,5.0,13.0,44,0.00,,,0.00,weatherlink.com 1.10,2013-11-24 11:25:00,
2013-11-24 06:40:00,28.1,9.0,30.40,West,273,4.0,10.0,44,0.00,,,0.00,weatherlink.com 1.10,2013-11-24 11:40:00,
2013-11-24 06:55:00,27.9,9.0,30.41,WNW,288,3.0,10.0,45,0.00,,,0.00,weatherlink.com 1.10,2013-11-24 11:55:00,
2013-11-24 07:10:00,27.6,8.0,30.42,West,280,3.0,7.0,44,0.00,,,0.00,weatherlink.com 1.10,2013-11-24 12:10:00,
2013-11-24 07:25:00,27.5,9.0,30.43,NW,304,6.0,7.0,45,0.00,,,0.00,weatherlink.com 1.10,2013-11-24 12:25:00,
2013-11-24 07:40:00,27.6,8.0,30.44,WNW,288,3.0,6.0,44,0.00,,,0.00,weatherlink.com 1.10,2013-11-24 12:40:00,
2013-11-24 07:55:00,28.7,9.0,30.45,WNW,291,5.0,8.0,43,0.00,,,0.00,weatherlink.com 1.10,2013-11-24 12:55:00,
2013-11-24 08:10:00,29.4,9.0,30.45,WNW,302,5.0,10.0,42,0.00,,,0.00,weatherlink.com 1.10,2013-11-24 13:10:00,
2013-11-24 08:25:00,29.8,10.0,30.47,WNW,297,7.0,9.0,43,0.00,,,0.00,weatherlink.com 1.10,2013-11-24 13:25:00,
2013-11-24 08:40:00,30.1,9.0,30.47,West,276,8.0,16.0,42,0.00,,,0.00,weatherlink.com 1.10,2013-11-24 13:40:00,
2013-11-24 08:55:00,30.5,9.0,30.48,West,281,4.0,13.0,40,0.00,,,0.00,weatherlink.com 1.10,2013-11-24 13:55:00,
2013-11-24 09:10:00,30.5,8.0,30.48,NW,311,11.0,17.0,39,0.00,,,0.00,weatherlink.com 1.10,2013-11-24 14:10:00,
2013-11-24 09:25:00,31.0,8.0,30.49,WNW,288,14.0,14.0,38,0.00,,,0.00,weatherlink.com 1.10,2013-11-24 14:25:00,
2013-11-24 09:40:00,30.8,7.0,30.49,WSW,255,6.0,13.0,36,0.00,,,0.00,weatherlink.com 1.10,2013-11-24 14:40:00,
2013-11-24 09:55:00,31.4,8.0,30.50,NW,308,8.0,11.0,37,0.00,,,0.00,weatherlink.com 1.10,2013-11-24 14:55:00,
2013-11-24 10:10:00,31.2,7.0,30.51,NNW,330,10.0,13.0,36,0.00,,,0.00,weatherlink.com 1.10,2013-11-24 15:10:00,
2013-11-24 10:25:00,32.0,7.0,30.51,West,266,4.0,13.0,35,0.00,,,0.00,weatherlink.com 1.10,2013-11-24 15:25:00,
2013-11-24 10:40:00,32.2,7.0,30.51,WSW,242,3.0,13.0,34,0.00,,,0.00,weatherlink.com 1.10,2013-11-24 15:40:00,
2013-11-24 10:55:00,32.3,7.0,30.52,NW,311,10.0,14.0,34,0.00,,,0.00,weatherlink.com 1.10,2013-11-24 15:55:00,
2013-11-24 11:10:00,32.9,7.0,30.51,NW,319,8.0,12.0,34,0.00,,,0.00,weatherlink.com 1.10,2013-11-24 16:10:00,
2013-11-24 11:25:00,33.0,7.0,30.50,WSW,255,7.0,19.0,33,0.00,,,0.00,weatherlink.com 1.10,2013-11-24 16:25:00,
2013-11-24 11:40:00,33.5,7.0,30.50,WSW,247,6.0,16.0,33,0.00,,,0.00,weatherlink.com 1.10,2013-11-24 16:40:00,
2013-11-24 11:55:00,33.3,6.0,30.49,NW,319,6.0,16.0,32,0.00,,,0.00,weatherlink.com 1.10,2013-11-24 16:55:00,
2013-11-24 12:10:00,34.1,6.0,30.48,NW,310,10.0,17.0,31,0.00,,,0.00,weatherlink.com 1.10,2013-11-24 17:10:00,
2013-11-24 12:25:00,34.3,6.0,30.48,NNW,331,10.0,17.0,31,0.00,,,0.00,weatherlink.com 1.10,2013-11-24 17:25:00,
2013-11-24 12:40:00,34.4,6.0,30.46,WNW,295,6.0,13.0,30,0.00,,,0.00,weatherlink.com 1.10,2013-11-24 17:40:00,
2013-11-24 12:55:00,35.0,6.0,30.46,WNW,293,10.0,15.0,30,0.00,,,0.00,weatherlink.com 1.10,2013-11-24 17:55:00,
2013-11-24 13:10:00,35.1,6.0,30.46,NNW,329,5.0,16.0,29,0.00,,,0.00,weatherlink.com 1.10,2013-11-24 18:10:00,
2013-11-24 13:25:00,35.1,6.0,30.47,WNW,286,3.0,15.0,29,0.00,,,0.00,weatherlink.com 1.10,2013-11-24 18:25:00,
2013-11-24 13:40:00,35.1,6.0,30.46,WNW,299,11.0,11.0,30,0.00,,,0.00,weatherlink.com 1.10,2013-11-24 18:40:00,
2013-11-24 13:55:00,35.7,7.0,30.46,WNW,288,3.0,10.0,30,0.00,,,0.00,weatherlink.com 1.10,2013-11-24 18:55:00,
2013-11-24 14:10:00,35.3,6.0,30.46,WNW,293,5.0,12.0,29,0.00,,,0.00,weatherlink.com 1.10,2013-11-24 19:10:00,
2013-11-24 14:25:00,36.1,7.0,30.46,WNW,290,1.0,8.0,29,0.00,,,0.00,weatherlink.com 1.10,2013-11-24 19:25:00,
2013-11-24 14:40:00,35.6,5.0,30.46,WNW,290,5.0,12.0,28,0.00,,,0.00,weatherlink.com 1.10,2013-11-24 19:40:00,
2013-11-24 14:55:00,35.8,6.0,30.46,North,349,7.0,12.0,29,0.00,,,0.00,weatherlink.com 1.10,2013-11-24 19:55:00,
2013-11-24 15:10:00,35.7,5.0,30.46,WNW,283,4.0,14.0,27,0.00,,,0.00,weatherlink.com 1.10,2013-11-24 20:10:00,
2013-11-24 15:25:00,35.3,5.0,30.46,West,262,3.0,10.0,28,0.00,,,0.00,weatherlink.com 1.10,2013-11-24 20:25:00,
2013-11-24 15:40:00,35.1,5.0,30.47,WNW,299,9.0,12.0,28,0.00,,,0.00,weatherlink.com 1.10,2013-11-24 20:40:00,
2013-11-24 15:55:00,34.8,5.0,30.48,NW,319,5.0,9.0,29,0.00,,,0.00,weatherlink.com 1.10,2013-11-24 20:55:00,